Retour au catalogue

CZ-6A DEB

ActifSSO
NORAD 54928·DEBRIS·🇨🇳 China

Lancé Nov 11, 2022 depuis Taiyuan Satellite Launch Center

Loading…

Prochains Passages (prochaines 24 heures)

TLE

FraisSource: Space-Track

Époque: Sep 14, 2026, 00:47 UTC

1 54928U 22151RR  26257.03302742  .00001553  00000-0  48352-3 0  9991
2 54928  98.6160 288.9223 0059680 104.2119 256.5709 14.41331733200646

Suivez CZ-6A DEB en temps réel avec AllMySat

Download on the App Store